Location: Gokavaram
(16.9752°N, 81.0696°E)
Time: 08:05:13
(UTC+00:00)

USA 267 - Pass Details

Date: 15 May 2026
Orbit: 1101 x 1107 km, 123.0° (Epoch: 10 January)

Event Time Altitude Azimuth Distance (km) Brightness Sun altitude
Rises 21:55:59 0° 50° (NE) 3,920 7.4 -28.3°
Reaches altitude 10° 21:58:39 10° 57° (ENE) 2,960 6.5 -27.8°
Maximum altitude 22:04:41 40° 125° (SE) 1,571 4.2 -26.6°
Enters shadow 22:07:45 26° 175° (S) 2,025 4.4 -25.9°
